This demonstration page uses our WeatherBlox Daily Observations layout. Learn more.

Left ArrowRight Arrow

Hourly Observations for July 6, 2018

Temp ( °F °C ) Dew Point ( °F °C ) Humidity (%) Winds ( mph kmh ) Pressure ( in mb ) Visibility ( mi km ) Precip ( " mm )
12:53 am 00:53 Clear 76 24.4 64 17.8 67 67 Calm 30.19 1023 10 16 0.00 0.00
1:53 am 01:53 Clear 74 23.3 63 17.2 69 69 E 5 7 30.19 1023 10 16 0.00 0.00
2:53 am 02:53 Clear 73 22.8 63 17.2 71 71 Calm 30.19 1022 10 16 0.00 0.00
3:53 am 03:53 Clear 72 22.2 63 17.2 73 73 E 5 7 30.18 1022 10 16 0.00 0.00
4:53 am 04:53 Clear 71 21.7 63 17.2 76 76 NNE 5 7 30.18 1022 10 16 0.00 0.00
5:53 am 05:53 Partly Cloudy 70 21.1 63 17.2 79 79 N 6 9 30.20 1023 10 16 0.00 0.00
6:53 am 06:53 Clear 69 20.6 63 17.2 81 81 N 7 11 30.21 1023 10 16 0.00 0.00
7:53 am 07:53 Mostly Cloudy 73 22.8 64 17.8 74 74 Calm 30.21 1023 10 16 0.00 0.00
8:53 am 08:53 Mostly Sunny 78 25.6 64 17.8 62 62 VRB 3 6 30.22 1024 10 16 0.00 0.00
9:53 am 09:53 Mostly Cloudy 80 26.7 65 18.3 60 60 NNE 6 9 30.23 1024 10 16 0.00 0.00
10:53 am 10:53 Sunny 84 28.9 63 17.2 49 49 NE 8 13 30.22 1023 10 16 0.00 0.00
11:53 am 11:53 Partly Cloudy 84 28.9 62 16.7 48 48 VRB 6 9 30.21 1023 10 16 0.00 0.00
12:53 pm 12:53 Mostly Sunny 86 30 60 15.6 42 42 Calm 30.19 1022 10 16 0.00 0.00
1:53 pm 13:53 Partly Cloudy 90 32.2 60 15.6 37 37 VRB 3 6 30.15 1021 10 16 0.00 0.00
2:53 pm 14:53 Partly Cloudy 91 32.8 59 15 34 34 VRB 5 7 30.12 1020 10 16 0.00 0.00
3:32 pm 15:32 Mostly Cloudy with Nearby Thunderstorms 81 27.2 66 18.9 61 61 S 13 20 30.03 1017 10 16 0.00 0.03
3:53 pm 15:53 Mostly Cloudy with Thunderstorms 85 29.4 63 17.2 48 48 ENE 6 9 30.12 1020 10 16 0.00 0.03
4:08 pm 16:08 Mostly Cloudy with Light Rain 82 27.8 64 17.8 55 55 NE 13 20 30.03 1017 10 16 0.00 0.03
4:19 pm 16:19 Mostly Cloudy with Light Rain 80 26.7 65 18.3 60 60 N 10 17 30.06 1018 8 13 0.00 0.03
4:53 pm 16:53 Sunny 84 28.9 65 18.3 53 53 NNE 9 15 30.08 1019 10 16 0.00 0.03
5:53 pm 17:53 Sunny 87 30.6 61 16.1 42 42 NNE 7 11 30.06 1018 10 16 0.00 0.00
6:53 pm 18:53 Sunny 89 31.7 59 15 36 36 N 6 9 30.05 1018 10 16 0.00 0.00
7:53 pm 19:53 Mostly Sunny 84 28.9 63 17.2 49 49 E 17 28 30.06 1018 10 16 0.00 0.00
8:53 pm 20:53 Sunny 84 28.9 59 15 43 43 E 9 15 30.05 1018 10 16 0.00 0.00
9:53 pm 21:53 Clear 81 27.2 62 16.7 53 53 Calm 30.06 1018 10 16 0.00 0.00
10:53 pm 22:53 Clear 80 26.7 61 16.1 52 52 ENE 14 22 30.08 1019 10 16 0.00 0.00
11:53 pm 23:53 Clear 77 25 62 16.7 60 60 ESE 13 20 30.09 1019 10 16 0.00 0.00

Powered by AerisWeather